QPF
0.00 0.01 0.01 0.01 0.01 0.02 0.03 0.04 0.05 0.05 0.04 0.03 0.02 0.02 0.02 0.02 0.01 0.01 0.01 0.01 0.02 0.03 0.03 0.02 0.03 0.03 0.03 0.02 0.02 0.03 0.03 0.03 0.02 0.02 0.02 0.01 0.01 0.01 0.01 0.01 0.01 0.01 0.01
0.01 0.01 0.01 0.01 0.01 0.01 0.02 0.03 0.03 0.03 0.04 0.03 0.02 0.02 0.02 0.02 0.02 0.01 0.01 0.01 0.01 0.02 0.02 0.03 0.04 0.04 0.03 0.03 0.02 0.02 0.02 0.03 0.03 0.03 0.02 0.02 0.02 0.02 0.01 0.01 0.01 0.01 0.01
0.01 0.01 0.01 0.01 0.01 0.02 0.01 0.02 0.02 0.02 0.04 0.04 0.03 0.02 0.03 0.03 0.04 0.02 0.02 0.01 0.01 0.01 0.02 0.04 0.05 0.05 0.04 0.03 0.02 0.02 0.01 0.01 0.01 0.02 0.02 0.01 0.01 0.01 0.02 0.02 0.02 0.01 0.01
0.01 0.01 0.01 0.01 0.01 0.01 0.02 0.02 0.02 0.02 0.03 0.04 0.03 0.02 0.02 0.02 0.02 0.02 0.02 0.02 0.02 0.02 0.02 0.03 0.06 0.07 0.05 0.04 0.04 0.02 0.01 0.01 0.01 0.01 0.01 0.01 0.00 0.01 0.01 0.02 0.02 0.02 0.02
0.01 0.01 0.01 0.01 0.01 0.01 0.02 0.01 0.01 0.02 0.02 0.02 0.03 0.03 0.02 0.02 0.02 0.02 0.03 0.03 0.03 0.02 0.02 0.03 0.05 0.05 0.05 0.05 0.05 0.04 0.02 0.01 0.01 0.01 0.01 0.00 0.00 0.00 0.00 0.01 0.01 0.01 0.02
0.01 0.01 0.01 0.01 0.01 0.01 0.01 0.01 0.01 0.02 0.02 0.02 0.02 0.02 0.03 0.03 0.02 0.02 0.02 0.02 0.02 0.02 0.02 0.02 0.03 0.05 0.05 0.04 0.04 0.03 0.02 0.01 0.01 0.01 0.01 0.00 0.00 0.00 0.00 0.00 0.00 0.01 0.01
0.01 0.01 0.00 0.01 0.01 0.01 0.01 0.02 0.02 0.02 0.03 0.02 0.01 0.01 0.02 0.03 0.03 0.02 0.02 0.02 0.02 0.02 0.02 0.02 0.02 0.03 0.04 0.05 0.04 0.03 0.03 0.01 0.01 0.01 0.01 0.01 0.00 0.00 0.00 0.01 0.01 0.01 0.01
0.01 0.01 0.01 0.01 0.01 0.01 0.01 0.02 0.02 0.03 0.04 0.04 0.03 0.02 0.02 0.02 0.03 0.03 0.02 0.01 0.01 0.02 0.02 0.02 0.01 0.01 0.02 0.02 0.03 0.04 0.03 0.02 0.01 0.01 0.01 0.01 0.01 0.01 0.01 0.01 0.02 0.02 0.02
0.01 0.01 0.01 0.01 0.01 0.01 0.01 0.01 0.02 0.03 0.03 0.03 0.03 0.02 0.02 0.01 0.02 0.02 0.02 0.02 0.01 0.01 0.02 0.02 0.02 0.02 0.01 0.02 0.02 0.04 0.03 0.02 0.01 0.01 0.01 0.01 0.01 0.01 0.01 0.01 0.02 0.02 0.02
0.01 0.01 0.01 0.02 0.02 0.01 0.01 0.01 0.01 0.02 0.02 0.02 0.01 0.01 0.01 0.01 0.01 0.01 0.01 0.01 0.01 0.01 0.01 0.02 0.02 0.02 0.02 0.02 0.02 0.03 0.04 0.03 0.02 0.01 0.01 0.01 0.01 0.01 0.01 0.01 0.01 0.02 0.02
0.02 0.01 0.01 0.02 0.02 0.02 0.02 0.02 0.01 0.01 0.01 0.01 0.01 0.01 0.01 0.01 0.00 0.01 0.01 0.01 0.00 0.01 0.01 0.01 0.01 0.02 0.02 0.02 0.02 0.02 0.02 0.03 0.03 0.02 0.01 0.01 0.01 0.01 0.01 0.01 0.01 0.02 0.02
0.02 0.02 0.02 0.02 0.02 0.02 0.02 0.02 0.02 0.02 0.01 0.01 0.01 0.01 0.01 0.01 0.01 0.01 0.00 0.01 0.00 0.00 0.00 0.00 0.00 0.01 0.01 0.01 0.01 0.01 0.01 0.02 0.02 0.02 0.01 0.01 0.01 0.01 0.01 0.01 0.01 0.01 0.01
0.03 0.03 0.03 0.02 0.02 0.01 0.02 0.02 0.02 0.02 0.01 0.01 0.01 0.01 0.01 0.01 0.01 0.01 0.01 0.01 0.01 0.01 0.00 0.00 0.00 0.00 0.00 0.01 0.01 0.01 0.01 0.01 0.01 0.01 0.01 0.01 0.01 0.01 0.01 0.01 0.01 0.01 0.01
0.04 0.04 0.03 0.03 0.02 0.02 0.02 0.02 0.02 0.02 0.02 0.01 0.01 0.01 0.01 0.01 0.01 0.01 0.01 0.01 0.01 0.01 0.01 0.01 0.00 0.00 0.00 0.00 0.01 0.01 0.01 0.01 0.01 0.01 0.01 0.01 0.01 0.01 0.01 0.01 0.01 0.01 0.01
0.04 0.03 0.03 0.02 0.02 0.02 0.01 0.01 0.02 0.02 0.02 0.01 0.01 0.01 0.01 0.01 0.01 0.00 0.01 0.01 0.01 0.02 0.01 0.01 0.01 0.01 0.00 0.00 0.01 0.01 0.01 0.01 0.01 0.01 0.01 0.01 0.02 0.02 0.02 0.01 0.01 0.01 0.01
0.05 0.04 0.03 0.02 0.02 0.02 0.02 0.02 0.02 0.03 0.02 0.01 0.00 0.00 0.01 0.01 0.01 0.01 0.01 0.01 0.01 0.02 0.02 0.02 0.02 0.02 0.01 0.01 0.01 0.01 0.01 0.01 0.01 0.01 0.01 0.01 0.02 0.02 0.02 0.02 0.02 0.02 0.02
0.05 0.04 0.03 0.03 0.03 0.03 0.03 0.02 0.03 0.04 0.03 0.01 0.01 0.01 0.01 0.01 0.01 0.01 0.01 0.01 0.01 0.02 0.02 0.02 0.02 0.02 0.02 0.01 0.01 0.01 0.01 0.01 0.01 0.01 0.01 0.01 0.02 0.02 0.01 0.02 0.02 0.02 0.02
0.05 0.04 0.03 0.03 0.02 0.02 0.03 0.03 0.03 0.03 0.04 0.03 0.01 0.01 0.01 0.01 0.01 0.01 0.01 0.01 0.01 0.02 0.02 0.02 0.02 0.02 0.02 0.02 0.01 0.01 0.01 0.01 0.01 0.01 0.01 0.01 0.01 0.01 0.01 0.01 0.01 0.01 0.01
0.06 0.05 0.04 0.04 0.03 0.03 0.03 0.04 0.04 0.03 0.03 0.03 0.02 0.02 0.01 0.02 0.02 0.02 0.01 0.01 0.01 0.01 0.01 0.02 0.02 0.02 0.02 0.02 0.02 0.01 0.01 0.01 0.01 0.01 0.01 0.00 0.01 0.01 0.01 0.01 0.01 0.01 0.01
0.05 0.06 0.05 0.04 0.03 0.04 0.04 0.04 0.04 0.04 0.04 0.04 0.03 0.03 0.03 0.04 0.03 0.03 0.02 0.01 0.01 0.02 0.02 0.01 0.02 0.02 0.02 0.03 0.02 0.02 0.01 0.01 0.01 0.01 0.01 0.01 0.01 0.01 0.01 0.01 0.01 0.01 0.01
0.04 0.06 0.06 0.06 0.05 0.04 0.04 0.05 0.04 0.04 0.05 0.05 0.03 0.04 0.04 0.05 0.06 0.04 0.04 0.02 0.02 0.02 0.03 0.02 0.02 0.02 0.02 0.02 0.02 0.02 0.01 0.01 0.01 0.01 0.01 0.01 0.01 0.01 0.01 0.01 0.01 0.01 0.01
0.02 0.04 0.06 0.06 0.05 0.05 0.04 0.05 0.06 0.06 0.05 0.06 0.04 0.04 0.05 0.05 0.05 0.06 0.06 0.04 0.03 0.03 0.04 0.04 0.03 0.03 0.03 0.03 0.03 0.02 0.02 0.01 0.01 0.01 0.00 0.00 0.01 0.01 0.01 0.01 0.01 0.01 0.01
0.02 0.03 0.04 0.05 0.05 0.05 0.05 0.05 0.06 0.06 0.06 0.06 0.06 0.06 0.05 0.04 0.05 0.06 0.07 0.06 0.04 0.04 0.04 0.04 0.04 0.04 0.04 0.04 0.04 0.03 0.03 0.02 0.01 0.01 0.01 0.01 0.01 0.01 0.01 0.01 0.01 0.01 0.01
0.03 0.03 0.03 0.03 0.04 0.04 0.05 0.06 0.06 0.05 0.06 0.06 0.06 0.06 0.05 0.04 0.05 0.05 0.06 0.08 0.07 0.05 0.05 0.05 0.04 0.04 0.04 0.03 0.02 0.03 0.03 0.03 0.02 0.01 0.01 0.01 0.01 0.01 0.01 0.01 0.01 0.00 0.00
0.03 0.03 0.03 0.03 0.03 0.03 0.03 0.04 0.06 0.05 0.05 0.05 0.05 0.05 0.05 0.05 0.05 0.05 0.06 0.07 0.08 0.07 0.06 0.05 0.04 0.04 0.04 0.03 0.03 0.02 0.02 0.02 0.02 0.02 0.02 0.02 0.02 0.02 0.02 0.01 0.01 0.01 0.01
0.02 0.02 0.03 0.03 0.03 0.03 0.03 0.04 0.06 0.05 0.05 0.05 0.04 0.04 0.05 0.05 0.05 0.06 0.06 0.07 0.07 0.08 0.07 0.06 0.05 0.04 0.04 0.04 0.03 0.03 0.03 0.03 0.03 0.03 0.03 0.02 0.02 0.02 0.02 0.02 0.01 0.01 0.01
MSLP
1009.49 1009.89 1010.29 1010.66 1010.97 1011.19 1011.30 1011.29 1011.14 1010.88 1010.52 1010.09 1009.63 1009.17 1008.76 1008.42 1008.16 1007.96 1007.82 1007.72 1007.63 1007.57 1007.54 1007.57 1007.69 1007.93 1008.33 1008.88 1009.58 1010.40 1011.28 1012.17 1013.03 1013.82 1014.51 1015.11 1015.63 1016.08 1016.48 1016.86 1017.22 1017.57 1017.90
1009.19 1009.58 1009.98 1010.35 1010.66 1010.89 1011.02 1011.04 1010.92 1010.68 1010.33 1009.90 1009.42 1008.93 1008.47 1008.07 1007.74 1007.48 1007.30 1007.17 1007.09 1007.05 1007.05 1007.13 1007.29 1007.58 1008.00 1008.58 1009.28 1010.10 1010.98 1011.88 1012.75 1013.55 1014.27 1014.90 1015.45 1015.94 1016.38 1016.79 1017.19 1017.57 1017.92
1009.04 1009.37 1009.70 1010.02 1010.29 1010.50 1010.64 1010.68 1010.61 1010.43 1010.13 1009.73 1009.28 1008.79 1008.30 1007.86 1007.49 1007.19 1006.97 1006.82 1006.73 1006.70 1006.73 1006.83 1007.02 1007.33 1007.77 1008.34 1009.03 1009.83 1010.68 1011.56 1012.41 1013.20 1013.92 1014.56 1015.13 1015.64 1016.12 1016.58 1017.03 1017.46 1017.86
1009.14 1009.35 1009.56 1009.76 1009.94 1010.10 1010.22 1010.27 1010.25 1010.13 1009.91 1009.59 1009.19 1008.75 1008.28 1007.84 1007.45 1007.13 1006.89 1006.72 1006.63 1006.60 1006.64 1006.76 1006.96 1007.28 1007.70 1008.25 1008.91 1009.66 1010.46 1011.29 1012.09 1012.84 1013.53 1014.16 1014.73 1015.26 1015.77 1016.27 1016.77 1017.26 1017.73
1009.58 1009.62 1009.65 1009.69 1009.73 1009.78 1009.85 1009.89 1009.91 1009.86 1009.72 1009.50 1009.19 1008.82 1008.41 1008.01 1007.64 1007.33 1007.08 1006.91 1006.81 1006.78 1006.83 1006.95 1007.15 1007.45 1007.86 1008.37 1008.98 1009.67 1010.40 1011.15 1011.89 1012.58 1013.22 1013.80 1014.35 1014.87 1015.38 1015.91 1016.46 1017.01 1017.55
1010.42 1010.27 1010.09 1009.91 1009.77 1009.68 1009.64 1009.64 1009.66 1009.65 1009.59 1009.46 1009.26 1008.98 1008.66 1008.33 1008.00 1007.72 1007.50 1007.34 1007.24 1007.22 1007.26 1007.37 1007.57 1007.85 1008.22 1008.69 1009.24 1009.86 1010.53 1011.20 1011.86 1012.47 1013.04 1013.57 1014.06 1014.55 1015.05 1015.59 1016.16 1016.76 1017.37
1011.65 1011.30 1010.89 1010.49 1010.13 1009.86 1009.68 1009.60 1009.57 1009.57 1009.56 1009.50 1009.38 1009.20 1008.97 1008.72 1008.46 1008.24 1008.05 1007.91 1007.83 1007.81 1007.84 1007.95 1008.12 1008.38 1008.72 1009.15 1009.65 1010.21 1010.81 1011.42 1012.00 1012.54 1013.04 1013.49 1013.92 1014.36 1014.83 1015.35 1015.93 1016.55 1017.22
1013.20 1012.65 1012.03 1011.40 1010.83 1010.36 1010.02 1009.80 1009.69 1009.64 1009.63 1009.60 1009.53 1009.43 1009.28 1009.10 1008.92 1008.75 1008.61 1008.50 1008.44 1008.42 1008.45 1008.54 1008.70 1008.93 1009.24 1009.64 1010.11 1010.63 1011.19 1011.74 1012.27 1012.75 1013.18 1013.57 1013.94 1014.32 1014.74 1015.22 1015.79 1016.43 1017.12
1014.90 1014.20 1013.40 1012.58 1011.81 1011.14 1010.62 1010.25 1010.01 1009.87 1009.79 1009.74 1009.68 1009.60 1009.51 1009.39 1009.27 1009.15 1009.05 1008.98 1008.94 1008.93 1008.96 1009.03 1009.17 1009.39 1009.68 1010.06 1010.51 1011.01 1011.55 1012.08 1012.58 1013.02 1013.41 1013.75 1014.07 1014.40 1014.78 1015.23 1015.77 1016.40 1017.11
1016.58 1015.77 1014.84 1013.88 1012.95 1012.12 1011.43 1010.89 1010.50 1010.22 1010.04 1009.90 1009.80 1009.71 1009.61 1009.53 1009.44 1009.37 1009.31 1009.27 1009.25 1009.24 1009.27 1009.34 1009.46 1009.66 1009.95 1010.32 1010.77 1011.28 1011.82 1012.35 1012.85 1013.30 1013.67 1014.00 1014.29 1014.58 1014.92 1015.34 1015.86 1016.47 1017.18
1018.05 1017.19 1016.19 1015.15 1014.12 1013.18 1012.35 1011.66 1011.10 1010.67 1010.34 1010.08 1009.88 1009.72 1009.60 1009.50 1009.43 1009.39 1009.36 1009.34 1009.33 1009.34 1009.36 1009.43 1009.54 1009.74 1010.02 1010.39 1010.86 1011.38 1011.95 1012.52 1013.05 1013.52 1013.91 1014.25 1014.54 1014.83 1015.15 1015.55 1016.05 1016.65 1017.34
1019.20 1018.32 1017.33 1016.27 1015.22 1014.22 1013.30 1012.48 1011.78 1011.18 1010.68 1010.27 1009.94 1009.68 1009.49 1009.36 1009.28 1009.24 1009.23 1009.24 1009.25 1009.27 1009.30 1009.37 1009.49 1009.68 1009.96 1010.35 1010.83 1011.38 1011.98 1012.59 1013.17 1013.68 1014.12 1014.50 1014.82 1015.12 1015.45 1015.85 1016.33 1016.91 1017.58
1019.98 1019.13 1018.19 1017.19 1016.17 1015.16 1014.20 1013.30 1012.47 1011.72 1011.05 1010.47 1009.99 1009.61 1009.33 1009.14 1009.04 1009.00 1009.01 1009.04 1009.08 1009.13 1009.18 1009.26 1009.39 1009.59 1009.88 1010.28 1010.78 1011.36 1011.99 1012.64 1013.27 1013.84 1014.33 1014.76 1015.13 1015.47 1015.82 1016.22 1016.70 1017.26 1017.91
1020.44 1019.65 1018.80 1017.89 1016.95 1016.00 1015.03 1014.08 1013.15 1012.27 1011.44 1010.71 1010.08 1009.56 1009.18 1008.93 1008.79 1008.75 1008.77 1008.83 1008.91 1009.00 1009.09 1009.20 1009.36 1009.58 1009.89 1010.30 1010.81 1011.41 1012.07 1012.75 1013.42 1014.03 1014.59 1015.07 1015.49 1015.87 1016.26 1016.68 1017.16 1017.71 1018.32
1020.68 1019.96 1019.21 1018.43 1017.59 1016.71 1015.78 1014.80 1013.81 1012.81 1011.85 1010.97 1010.19 1009.56 1009.07 1008.75 1008.58 1008.53 1008.57 1008.67 1008.80 1008.95 1009.09 1009.26 1009.45 1009.71 1010.04 1010.47 1010.99 1011.60 1012.27 1012.98 1013.67 1014.33 1014.92 1015.45 1015.92 1016.36 1016.78 1017.22 1017.70 1018.23 1018.81
1020.82 1020.17 1019.52 1018.85 1018.12 1017.32 1016.42 1015.44 1014.39 1013.31 1012.24 1011.23 1010.33 1009.58 1009.00 1008.62 1008.41 1008.36 1008.42 1008.56 1008.75 1008.96 1009.18 1009.42 1009.68 1009.98 1010.35 1010.80 1011.34 1011.96 1012.64 1013.34 1014.05 1014.73 1015.36 1015.93 1016.44 1016.92 1017.37 1017.83 1018.31 1018.82 1019.37
1020.96 1020.36 1019.79 1019.20 1018.55 1017.81 1016.95 1015.97 1014.88 1013.73 1012.57 1011.46 1010.45 1009.60 1008.95 1008.50 1008.26 1008.19 1008.27 1008.46 1008.71 1009.00 1009.30 1009.62 1009.96 1010.33 1010.76 1011.25 1011.81 1012.44 1013.12 1013.82 1014.53 1015.22 1015.87 1016.47 1017.02 1017.53 1018.01 1018.49 1018.97 1019.46 1019.96
1021.14 1020.56 1020.02 1019.47 1018.87 1018.15 1017.30 1016.31 1015.20 1014.00 1012.78 1011.59 1010.51 1009.58 1008.86 1008.35 1008.07 1008.00 1008.08 1008.30 1008.61 1008.97 1009.36 1009.77 1010.20 1010.66 1011.16 1011.70 1012.30 1012.95 1013.63 1014.34 1015.06 1015.75 1016.42 1017.04 1017.62 1018.15 1018.66 1019.15 1019.63 1020.10 1020.57
1021.33 1020.73 1020.18 1019.62 1019.01 1018.29 1017.43 1016.43 1015.29 1014.07 1012.81 1011.59 1010.45 1009.48 1008.70 1008.15 1007.82 1007.72 1007.80 1008.03 1008.37 1008.79 1009.26 1009.77 1010.30 1010.85 1011.43 1012.05 1012.70 1013.39 1014.10 1014.82 1015.54 1016.25 1016.93 1017.58 1018.18 1018.75 1019.28 1019.78 1020.25 1020.71 1021.15
1021.46 1020.80 1020.19 1019.57 1018.91 1018.16 1017.28 1016.26 1015.12 1013.90 1012.64 1011.41 1010.27 1009.27 1008.45 1007.86 1007.50 1007.35 1007.41 1007.63 1007.99 1008.45 1008.99 1009.57 1010.20 1010.85 1011.53 1012.23 1012.95 1013.69 1014.44 1015.19 1015.94 1016.67 1017.37 1018.04 1018.68 1019.27 1019.83 1020.35 1020.83 1021.27 1021.68
1021.45 1020.68 1019.97 1019.26 1018.52 1017.71 1016.79 1015.78 1014.66 1013.47 1012.25 1011.06 1009.94 1008.95 1008.13 1007.51 1007.10 1006.91 1006.93 1007.13 1007.48 1007.96 1008.54 1009.20 1009.91 1010.66 1011.44 1012.23 1013.04 1013.84 1014.65 1015.44 1016.22 1016.98 1017.72 1018.42 1019.09 1019.72 1020.30 1020.84 1021.33 1021.77 1022.16
1021.21 1020.32 1019.47 1018.64 1017.80 1016.92 1015.98 1014.97 1013.90 1012.78 1011.64 1010.53 1009.48 1008.54 1007.74 1007.11 1006.68 1006.45 1006.42 1006.58 1006.92 1007.40 1008.01 1008.72 1009.51 1010.35 1011.22 1012.11 1013.00 1013.88 1014.75 1015.60 1016.42 1017.22 1017.98 1018.72 1019.42 1020.08 1020.69 1021.26 1021.76 1022.20 1022.58
1020.75 1019.70 1018.70 1017.73 1016.79 1015.84 1014.88 1013.89 1012.89 1011.87 1010.85 1009.86 1008.91 1008.05 1007.30 1006.70 1006.26 1006.00 1005.93 1006.06 1006.37 1006.85 1007.48 1008.24 1009.09 1010.01 1010.97 1011.95 1012.93 1013.88 1014.81 1015.71 1016.57 1017.40 1018.20 1018.97 1019.70 1020.39 1021.03 1021.61 1022.13 1022.58 1022.96
1020.10 1018.88 1017.72 1016.60 1015.54 1014.53 1013.55 1012.61 1011.68 1010.78 1009.90 1009.05 1008.24 1007.49 1006.82 1006.27 1005.85 1005.59 1005.50 1005.61 1005.91 1006.39 1007.04 1007.84 1008.76 1009.75 1010.79 1011.85 1012.90 1013.93 1014.91 1015.85 1016.74 1017.60 1018.42 1019.20 1019.95 1020.66 1021.32 1021.92 1022.45 1022.91 1023.29
1019.34 1017.96 1016.62 1015.36 1014.19 1013.10 1012.11 1011.19 1010.35 1009.57 1008.83 1008.12 1007.46 1006.84 1006.28 1005.80 1005.43 1005.20 1005.14 1005.25 1005.56 1006.06 1006.75 1007.60 1008.57 1009.63 1010.75 1011.87 1012.99 1014.06 1015.09 1016.05 1016.97 1017.83 1018.65 1019.44 1020.19 1020.91 1021.58 1022.19 1022.74 1023.21 1023.59
1018.59 1017.04 1015.55 1014.14 1012.85 1011.68 1010.65 1009.75 1008.97 1008.28 1007.66 1007.10 1006.58 1006.09 1005.65 1005.27 1004.99 1004.83 1004.82 1004.98 1005.33 1005.89 1006.62 1007.53 1008.57 1009.69 1010.87 1012.05 1013.21 1014.32 1015.37 1016.34 1017.25 1018.10 1018.91 1019.69 1020.43 1021.14 1021.80 1022.42 1022.98 1023.45 1023.84
Thickness
5580 5585 5589 5593 5597 5601 5605 5607 5609 5611 5612 5612 5613 5615 5616 5616 5617 5618 5618 5619 5620 5621 5622 5623 5624 5624 5624 5624 5624 5623 5621 5620 5620 5618 5616 5616 5616 5617 5618 5618 5618 5618 5617
5566 5572 5576 5581 5585 5590 5594 5597 5600 5602 5604 5606 5607 5609 5609 5609 5610 5609 5610 5611 5613 5614 5616 5617 5617 5618 5618 5617 5618 5617 5615 5614 5613 5614 5612 5611 5610 5610 5610 5610 5610 5611 5610
5551 5557 5562 5568 5574 5578 5583 5587 5590 5593 5596 5598 5599 5599 5600 5600 5601 5602 5603 5605 5606 5608 5609 5610 5610 5611 5611 5611 5611 5611 5610 5609 5607 5608 5609 5608 5609 5606 5604 5603 5603 5603 5604
5535 5542 5548 5554 5560 5566 5570 5575 5580 5583 5586 5589 5591 5593 5595 5596 5598 5597 5597 5598 5599 5600 5602 5602 5603 5604 5604 5604 5604 5605 5605 5604 5602 5600 5601 5603 5605 5602 5600 5597 5597 5596 5596
5519 5526 5533 5539 5546 5552 5557 5563 5568 5572 5576 5580 5583 5585 5588 5590 5590 5589 5590 5591 5592 5593 5594 5595 5596 5596 5597 5597 5597 5597 5598 5598 5598 5596 5594 5593 5593 5595 5595 5594 5592 5590 5589
5503 5511 5518 5525 5531 5538 5544 5550 5556 5561 5565 5569 5573 5577 5580 5582 5582 5582 5583 5584 5585 5586 5587 5588 5589 5590 5590 5590 5590 5590 5591 5591 5592 5591 5590 5590 5589 5589 5589 5589 5586 5585 5584
5486 5494 5502 5509 5516 5523 5531 5538 5544 5549 5554 5559 5563 5567 5571 5573 5575 5575 5576 5577 5578 5579 5581 5581 5582 5583 5583 5583 5583 5583 5584 5584 5585 5584 5584 5584 5584 5584 5583 5582 5580 5578 5576
5468 5476 5484 5492 5500 5508 5516 5524 5531 5537 5542 5548 5552 5557 5560 5563 5565 5567 5568 5570 5572 5573 5574 5574 5576 5576 5576 5577 5577 5577 5576 5577 5577 5577 5577 5577 5576 5575 5575 5574 5572 5570 5569
5452 5460 5468 5476 5484 5492 5500 5509 5517 5524 5530 5535 5540 5545 5549 5553 5555 5557 5559 5561 5563 5565 5566 5567 5568 5569 5569 5570 5570 5570 5570 5569 5569 5569 5569 5569 5568 5567 5566 5566 5565 5564 5564
5436 5443 5452 5460 5468 5477 5485 5493 5503 5510 5517 5523 5528 5533 5538 5542 5545 5547 5550 5552 5554 5556 5558 5559 5561 5561 5562 5562 5563 5563 5563 5562 5562 5561 5561 5561 5560 5559 5558 5558 5557 5557 5556
5419 5427 5436 5444 5452 5461 5469 5478 5487 5496 5504 5510 5516 5521 5526 5530 5534 5537 5539 5542 5544 5546 5549 5551 5552 5554 5554 5555 5555 5555 5555 5554 5554 5553 5553 5553 5552 5551 5551 5550 5549 5548 5548
5404 5412 5421 5429 5438 5446 5454 5463 5472 5481 5489 5497 5503 5509 5514 5518 5522 5526 5529 5532 5534 5537 5540 5542 5544 5545 5546 5547 5548 5548 5547 5548 5547 5547 5546 5545 5544 5543 5542 5541 5541 5540 5539
5388 5397 5405 5414 5422 5431 5439 5448 5457 5466 5475 5483 5490 5497 5501 5506 5511 5515 5518 5521 5525 5528 5530 5532 5535 5536 5538 5539 5540 5540 5540 5540 5540 5539 5538 5538 5537 5536 5535 5533 5532 5531 5530
5373 5381 5389 5397 5406 5414 5424 5433 5443 5452 5461 5470 5478 5484 5490 5495 5499 5503 5507 5511 5515 5517 5520 5522 5525 5527 5528 5530 5531 5531 5531 5531 5531 5530 5530 5530 5529 5528 5527 5525 5524 5522 5520
5358 5366 5373 5382 5390 5399 5408 5418 5428 5437 5447 5456 5465 5472 5477 5482 5487 5491 5496 5500 5503 5506 5509 5511 5514 5516 5518 5519 5521 5521 5521 5522 5521 5521 5520 5520 5520 5519 5518 5517 5516 5514 5512
5343 5351 5359 5368 5376 5384 5393 5403 5413 5422 5432 5442 5452 5459 5465 5470 5475 5479 5483 5487 5491 5494 5497 5500 5503 5505 5507 5509 5509 5511 5511 5511 5512 5511 5511 5510 5509 5508 5507 5507 5506 5504 5503
5329 5337 5345 5353 5361 5369 5378 5388 5398 5408 5418 5429 5438 5445 5451 5457 5462 5466 5471 5475 5479 5483 5486 5489 5492 5495 5497 5497 5498 5499 5500 5501 5501 5501 5501 5500 5500 5498 5498 5496 5495 5493 5492
5315 5323 5331 5340 5348 5356 5365 5374 5384 5394 5405 5415 5424 5431 5437 5443 5448 5453 5458 5463 5467 5471 5475 5478 5480 5483 5485 5485 5486 5487 5488 5490 5490 5491 5491 5491 5490 5489 5488 5487 5486 5485 5483
5302 5309 5317 5326 5335 5344 5352 5362 5371 5381 5391 5400 5410 5417 5424 5429 5435 5440 5445 5450 5454 5458 5462 5466 5468 5471 5473 5473 5474 5475 5477 5478 5479 5479 5479 5480 5480 5478 5477 5476 5475 5474 5473
5292 5299 5306 5315 5324 5332 5340 5349 5358 5368 5376 5385 5394 5402 5409 5415 5421 5426 5431 5436 5441 5445 5449 5452 5456 5459 5461 5461 5462 5463 5465 5466 5467 5467 5468 5468 5468 5466 5465 5465 5465 5463 5462
5282 5289 5296 5305 5312 5319 5328 5337 5345 5353 5361 5370 5379 5387 5395 5401 5407 5412 5417 5423 5428 5432 5436 5439 5442 5445 5448 5449 5450 5451 5454 5455 5455 5456 5456 5456 5455 5454 5453 5453 5453 5452 5449
5274 5279 5286 5294 5301 5308 5316 5324 5332 5338 5347 5356 5365 5373 5380 5387 5393 5399 5404 5409 5414 5419 5422 5426 5428 5431 5434 5436 5437 5439 5440 5441 5443 5444 5445 5444 5443 5442 5441 5440 5439 5437 5436
5265 5270 5276 5284 5290 5296 5303 5311 5318 5325 5334 5344 5352 5359 5366 5373 5379 5384 5390 5396 5401 5406 5409 5413 5416 5418 5421 5423 5424 5425 5427 5428 5429 5430 5431 5431 5430 5428 5428 5427 5426 5424 5424
5256 5261 5266 5273 5280 5286 5292 5298 5305 5313 5322 5330 5338 5345 5352 5360 5366 5371 5376 5381 5387 5392 5396 5399 5403 5405 5407 5409 5411 5412 5413 5414 5415 5415 5416 5416 5415 5415 5415 5414 5413 5412 5412
5247 5252 5257 5263 5270 5276 5282 5288 5294 5302 5310 5317 5325 5332 5339 5347 5352 5357 5361 5367 5372 5376 5381 5385 5389 5391 5394 5396 5398 5399 5400 5401 5402 5402 5402 5402 5402 5403 5402 5402 5401 5400 5399
5240 5244 5249 5254 5260 5266 5273 5278 5284 5290 5297 5305 5312 5319 5326 5333 5339 5343 5347 5351 5357 5361 5365 5369 5373 5377 5380 5381 5383 5385 5387 5387 5388 5389 5390 5391 5390 5390 5390 5389 5388 5387 5386